"Pseudo-MPEC" for CDR25T2

Created 2025 Nov 9 8:35:04 UT using Find_Orb

Click here for an explanation of pseudo-MPECs

 
 Astrometry: 
     CDR25T2  C2025 11 01.49864809 39 01.360+10 39 34.53   ~B3E5 20.41gUNEOCPI41
     CDR25T2*1C2025 11 02.47358909 39 25.700+10 39 12.02   ~B2C5 19.86GVNEOCPG96
     CDR25T2 1C2025 11 02.47980609 39 25.848+10 39 11.45   ~B2C5 19.80GVNEOCPG96
     CDR25T2 1C2025 11 02.48601209 39 26.010+10 39 10.91   ~B2C5 19.72GVNEOCPG96
     CDR25T2  C2025 11 02.50918809 39 26.568+10 39 11.09   ~B2Co 20.23GVNEOCPI52
     CDR25T2  C2025 11 02.51658309 39 26.766+10 39 11.12   ~B2Co 20.03GVNEOCPI52
     CDR25T2  C2025 11 02.52423309 39 26.910+10 39 10.66   ~B2Co 20.68GVNEOCPI52
     CDR25T2 KB2025 11 03.11909 09 39 41.59 +10 38 56.8    ~B5GK 19.6 GXNEOCPM45
     CDR25T2 KB2025 11 03.12866 09 39 41.87 +10 38 57.0    ~B5GK 19.9 GXNEOCPM45
     CDR25T2 mC2025 11 03.41428509 39 48.748+10 38 52.12   ~B3Ao 19.84GVNEOCPI52
     CDR25T2 mC2025 11 03.42722009 39 49.126+10 38 52.01   ~B3Ao 20.41GVNEOCPI52
     CDR25T2 mC2025 11 03.43988109 39 49.439+10 38 51.65   ~B3Ao       VNEOCPI52
     CDR25T2 KC2025 11 04.45075309 40 13.681+10 38 33.36   ~B4C5 20.22GVNEOCPI52
     CDR25T2 KC2025 11 04.46380409 40 13.948+10 38 33.22   ~B4C5 19.91GVNEOCPI52
     CDR25T2 KC2025 11 04.47687309 40 14.279+10 38 32.93   ~B4C5 19.64GVNEOCPI52
     CDR25T2 KC2025 11 04.48984709 40 14.556+10 38 32.82   ~B4C5 19.73GVNEOCPI52
     CDR25T2 KC2025 11 05.34640 09 40 34.67 +10 38 20.8    ~B59Kx19.2 GXNEOCPW62
     CDR25T2 KC2025 11 05.35338 09 40 34.83 +10 38 20.7    ~B59Kx19.4 GXNEOCPW62
     CDR25T2 KC2025 11 05.36105 09 40 34.99 +10 38 20.6    ~B59Kx19.1 GXNEOCPW62
     CDR25T2 KB2025 11 05.40529 09 40 36.197+10 38 19.43   ~B5EZ 19.8 GXNEOCPW05
     CDR25T2 KB2025 11 05.43068 09 40 36.744+10 38 18.92   ~B5EZ 19.1 GXNEOCPW05
     CDR25T2 KB2025 11 05.45645 09 40 37.351+10 38 18.46   ~B5EZ 18.8 GXNEOCPW05
     CDR25T2 KC2025 11 06.11479 09 40 52.378+10 38 09.97   ~B6Lox20.5 GWNEOCP204
     CDR25T2 KC2025 11 08.47065109 41 45.474+10 37 52.39   ~B8Co 20.15GVNEOCPI52
     CDR25T2 KC2025 11 08.48523409 41 45.769+10 37 52.00   ~B8Co 20.82GVNEOCPI52
     CDR25T2 KC2025 11 08.49983909 41 46.061+10 37 52.97   ~B8Co       VNEOCPI52
     CDR25T2 KC2025 11 08.51372909 41 46.414+10 37 52.14   ~B8Co       VNEOCPI52
     CDR25T2 KC2025 11 09.10814 09 42 04.01 +10 35 16.3    ~B975x20.6  qNEOCPL27
     CDR25T2 KC2025 11 09.13132 09 42 04.61 +10 35 14.4    ~B975x20.5  qNEOCPL27

Station data:
(204) Schiaparelli Observatory  (N45.868292 E8.769720)  Italy.  Observer L.
   Buzzi. 0.84-m f/3.5 reflector + CCD.
(G96) Mt. Lemmon Survey  (N32.442729 W110.788720)  US/Arizona.  Observer E.
   J. Christensen. Measurers T. Beuden, V. F. Carvajal, D. Fay, J. B.
   Fazekas, D. C. Fuls, A. R. Gibbs, A. D. Grauer, H. Gröller, J. K. Hogan,
   R. A. Kowalski, S. M. Larson, G. J. Leonard, D. Rankin, R. L. Seaman, F.
   C. Shelly, K. W. Wierzchoś. 1.5-m reflector + 10K CCD.
(I41) Palomar Mountain--ZTF  (N33.357336 W116.859780)  US/California.
   Observers B. T. Bolin, Z. T. F. Collaboration. Measurers B. T. Bolin,
   Z.-Y. Lin, F. J. Masci. 1.2-m f/2.4 Schmidt.
(I52) Steward Observatory, Mt. Lemmon Station  (N32.442570 W110.788920)
   US/Arizona. Measurers T. Beuden, V. F. Carvajal, D. Fay, J. B. Fazekas, D.
   C. Fuls, A. R. Gibbs, A. D. Grauer, H. Gröller, J. K. Hogan, R. A.
   Kowalski, S. M. Larson, G. J. Leonard, D. Rankin, R. L. Seaman, F. C.
   Shelly, K. W. Wierzchoś. 1.0-m prime focus + CCD.
(L27) 29PREMOTE Observatory, Dauban  (N43.999832 E5.647040)  France.
   Observer J.-F. Soulier. 0.20-m f/4 Newtonian reflector + CCD.
(M45) Starhopper Observatory, Sfantu Gheorghe  (N45.865494 E25.768890)
   Romania.  Observer F. Ursache. 0.41-m f/7.5 reflector + CMO.
(W05) Tree Gate Farm Observatory, Starkville  (N33.347635 W88.732810).
   Observer J.-F. Gout. 0.5-m f/1.5 reflector + CMOS.
(W62) Comet Hunter Observatory2, New Ringgold  (N40.745185 W75.862390)
   US/Pennsylvania.  Observer J. Maikner. 0.30-m f/3.8 Riccardi-Honders + CCD.

Orbital elements:  CDR25T2
   Perihelion 2027 May 30.275086 +/- 69.4 TT =  6:36:07.4 (JD 2461555.775086)
Epoch 2025 Nov  8.0 TT = JDT 2460987.5   Ju: 0.1291              AutoNEOCP
M 354.570330776 +/- 6               (J2000 ecliptic)
n   0.009554649 +/- 0.0114          Peri.   97.994093 +/- 5.7
a  21.99511369 +/- 22               Node   138.554468 +/- 0.48
e   0.89040941 +/- 0.11             Incl.   35.401027 +/- 1.7
P 103.15477                H 11.90  G  0.15   U  9.7
q 2.410457438 +/- 0.504    Q 41.57976995 +/- 44.8
23 of 29 observations 2025 Nov. 1-8; mean residual 0".40
Residuals in arcseconds: 
251101 I41  .38-  .03+    251103 I52  .51+  .31+    251105 W05  .35-  .08+    
251102 G96  .14-  .46+    251103 I52  .65+  .18+    251105 W05  .09-  .06-    
251102 G96  .19-  .02+    251104 I52  .14-  .06-    251106 204( 3.6-  .10-)   
251102 G96  .03-  .39-    251104 I52  .72-  .00     251108 I52  .18+  .06-    
251102 I52  .09-  .28+    251104 I52  .34-  .09-    251108 I52  .07-  .40-    
251102 I52  .18+  .47+    251104 I52  .73-  .00     251108 I52  .36-  .61+    
251102 I52  .43-  .17+    251105 W62( 2.1-  1.0+)   251108 I52  .47+  .18-    
251103 M45  .54+  .79-    251105 W62( 2.1-  1.0+)   251109 L27(69.6+  154-)   
251103 M45  1.3+  .40-    251105 W62( 2.4-  1.0+)   251109 L27(71.2+  156-)   
251103 I52  .48-  .19+    251105 W05  .16+  .27+    

Ephemerides (geocentric):
Date (UTC) HH   RA             Dec           delta  r     elong  mag " sig PA
---- --------  ------------   ------------  ------ ------ -----  --- --------
2025 11 09 09  09 42 04.954   +10 37 50.92  5.7603 5.7185  82.6 20.1 .352 171
2025 11 09 10  09 42 05.844   +10 37 50.88  5.7593 5.7182  82.7 20.1 .363 171
2025 11 09 11  09 42 06.734   +10 37 50.85  5.7584 5.7179  82.7 20.1 .374 171
2025 11 09 12  09 42 07.623   +10 37 50.83  5.7574 5.7177  82.8 20.1 .386 171
2025 11 09 13  09 42 08.511   +10 37 50.81  5.7564 5.7174  82.8 20.1 .397 171
2025 11 09 14  09 42 09.398   +10 37 50.80  5.7555 5.7171  82.8 20.1 .409 171
2025 11 09 15  09 42 10.284   +10 37 50.80  5.7545 5.7168  82.9 20.1 .421 171
2025 11 09 16  09 42 11.170   +10 37 50.80  5.7535 5.7165  82.9 20.1 .433 171
2025 11 09 17  09 42 12.054   +10 37 50.81  5.7526 5.7162  83.0 20.1 .445 171
2025 11 09 18  09 42 12.938   +10 37 50.82  5.7516 5.7159  83.0 20.1 .457 171
2025 11 09 19  09 42 13.820   +10 37 50.84  5.7506 5.7156  83.0 20.1 .470 171
2025 11 09 20  09 42 14.702   +10 37 50.86  5.7497 5.7153  83.1 20.1 .482 171
2025 11 09 21  09 42 15.583   +10 37 50.89  5.7487 5.7150  83.1 20.1 .495 171
2025 11 09 22  09 42 16.463   +10 37 50.92  5.7477 5.7147  83.1 20.1 .508 171
2025 11 09 23  09 42 17.342   +10 37 50.97  5.7468 5.7145  83.2 20.1 .521 171
2025 11 10 00  09 42 18.220   +10 37 51.01  5.7458 5.7142  83.2 20.1 .534 171
2025 11 10 01  09 42 19.097   +10 37 51.06  5.7448 5.7139  83.3 20.1 .547 171
2025 11 10 02  09 42 19.974   +10 37 51.12  5.7439 5.7136  83.3 20.1 .561 171
2025 11 10 03  09 42 20.849   +10 37 51.19  5.7429 5.7133  83.3 20.1 .574 170
2025 11 10 04  09 42 21.724   +10 37 51.26  5.7419 5.7130  83.4 20.1 .588 170
2025 11 10 05  09 42 22.598   +10 37 51.33  5.7410 5.7127  83.4 20.1 .602 170
2025 11 10 06  09 42 23.470   +10 37 51.42  5.7400 5.7124  83.5 20.1 .616 170
2025 11 10 07  09 42 24.342   +10 37 51.50  5.7390 5.7121  83.5 20.1 .630 170
2025 11 10 08  09 42 25.213   +10 37 51.60  5.7380 5.7118  83.5 20.1 .644 170
2025 11 10 09  09 42 26.083   +10 37 51.70  5.7371 5.7115  83.6 20.1 .659 170
2025 11 10 10  09 42 26.953   +10 37 51.80  5.7361 5.7112  83.6 20.1 .673 170
2025 11 10 11  09 42 27.821   +10 37 51.91  5.7351 5.7110  83.6 20.1 .688 170
2025 11 10 12  09 42 28.688   +10 37 52.03  5.7342 5.7107  83.7 20.1 .703 170
2025 11 10 13  09 42 29.555   +10 37 52.15  5.7332 5.7104  83.7 20.1 .718 170
2025 11 10 14  09 42 30.421   +10 37 52.28  5.7322 5.7101  83.8 20.1 .733 170
2025 11 10 15  09 42 31.285   +10 37 52.42  5.7313 5.7098  83.8 20.1 .748 170
2025 11 10 16  09 42 32.149   +10 37 52.56  5.7303 5.7095  83.8 20.1 .764 170
2025 11 10 17  09 42 33.012   +10 37 52.71  5.7293 5.7092  83.9 20.1 .779 170
2025 11 10 18  09 42 33.874   +10 37 52.86  5.7284 5.7089  83.9 20.1 .795 170
2025 11 10 19  09 42 34.735   +10 37 53.02  5.7274 5.7086  84.0 20.1 .811 170
2025 11 10 20  09 42 35.595   +10 37 53.18  5.7264 5.7083  84.0 20.1 .827 170
2025 11 10 21  09 42 36.455   +10 37 53.35  5.7255 5.7080  84.0 20.1 .843 169
2025 11 10 22  09 42 37.313   +10 37 53.53  5.7245 5.7078  84.1 20.1 .860 169
2025 11 10 23  09 42 38.171   +10 37 53.71  5.7235 5.7075  84.1 20.1 .876 169
2025 11 11 00  09 42 39.027   +10 37 53.90  5.7225 5.7072  84.1 20.1 .893 169
2025 11 11 01  09 42 39.883   +10 37 54.09  5.7216 5.7069  84.2 20.1 .910 169
2025 11 11 02  09 42 40.738   +10 37 54.29  5.7206 5.7066  84.2 20.1 .927 169
2025 11 11 03  09 42 41.592   +10 37 54.50  5.7196 5.7063  84.3 20.1 .944 169
2025 11 11 04  09 42 42.445   +10 37 54.71  5.7187 5.7060  84.3 20.1 .961 169
2025 11 11 05  09 42 43.297   +10 37 54.93  5.7177 5.7057  84.3 20.1 .979 169
2025 11 11 06  09 42 44.148   +10 37 55.15  5.7167 5.7054  84.4 20.1 1.00 169
2025 11 11 07  09 42 44.998   +10 37 55.38  5.7158 5.7051  84.4 20.1 1.01 169
2025 11 11 08  09 42 45.847   +10 37 55.62  5.7148 5.7048  84.5 20.1 1.03 169